Dewpoint
68 69 69 70 69 70 68 67 66 67 66 66 65 64 64 64 64 64 64 64 64 65 67 68 67 65 65 64 65 64 63 61 61 60 60 60 60 61 59 59 60 59 59
67 68 68 69 68 69 68 67 66 66 66 65 64 63 63 63 63 64 64 64 63 64 65 67 67 66 64 62 64 63 62 62 61 60 60 60 60 59 59 59 59 59 59
67 67 66 67 68 68 68 67 65 65 65 64 63 63 63 63 62 62 63 64 64 61 63 64 65 66 64 62 63 62 62 61 61 60 61 60 59 59 58 59 59 59 58
67 66 65 66 67 66 66 64 63 63 65 64 64 63 63 63 62 62 62 62 63 63 63 63 63 65 65 63 62 61 61 62 61 61 60 60 59 59 59 59 59 59 58
66 65 65 65 66 66 65 63 63 63 62 62 63 63 63 62 62 61 61 61 62 63 63 62 62 62 64 64 63 61 61 60 61 59 59 60 59 59 59 59 59 58 58
65 66 65 65 65 64 64 64 63 63 62 62 61 62 62 62 62 62 62 61 62 62 63 63 65 63 61 63 63 63 61 60 59 60 59 59 59 58 59 59 58 57 57
65 66 65 64 64 64 64 64 63 62 62 62 61 60 61 62 61 62 62 62 62 62 63 63 64 63 62 62 62 63 62 61 59 59 60 60 60 59 59 59 58 57 57
66 66 65 64 64 64 64 64 62 61 62 62 60 59 57 59 60 62 62 62 62 63 62 63 63 63 63 63 62 62 62 62 60 59 61 60 59 59 59 58 58 57 57
66 66 65 64 64 64 63 62 62 62 60 62 62 60 56 55 57 60 60 62 61 62 62 62 62 62 62 63 61 60 58 59 60 61 61 61 60 59 58 58 58 58 57
65 66 65 64 64 64 64 63 64 64 63 60 62 62 61 58 55 55 59 60 61 61 61 62 62 61 62 62 60 57 55 55 57 60 61 61 61 59 58 57 58 58 58
66 66 65 65 65 64 64 63 63 64 63 61 60 60 60 59 59 56 54 57 59 60 60 61 62 61 61 61 60 58 54 53 55 58 60 61 61 60 59 58 58 58 58
65 65 64 64 64 64 64 63 64 64 63 62 61 60 59 57 56 57 55 56 56 58 60 60 60 61 61 61 59 55 53 52 52 56 58 59 60 60 59 59 58 59 59
63 64 64 64 64 64 63 64 63 64 63 62 62 61 61 60 59 58 57 56 55 57 59 59 60 60 60 61 60 55 53 51 51 53 55 57 58 58 58 59 59 58 59
64 63 63 64 64 63 63 63 63 63 63 62 62 61 60 60 60 58 57 56 54 55 55 55 59 59 60 60 58 53 57 50 50 51 52 54 55 56 56 57 58 58 59
64 64 64 63 64 63 63 62 62 62 61 61 61 61 60 60 59 59 58 57 56 52 52 54 55 58 59 59 57 59 59 52 49 49 50 51 52 54 54 55 56 57 58
63 63 63 63 63 63 62 61 60 61 60 61 60 59 59 59 58 59 58 59 58 55 52 55 56 57 58 58 56 58 58 52 49 48 48 49 50 51 52 52 53 55 56
62 61 61 61 61 62 61 60 59 60 60 59 59 58 58 58 58 58 58 57 57 57 54 55 56 57 57 57 58 57 57 58 57 48 47 47 47 48 49 49 50 51 52
61 61 61 61 61 61 60 59 59 59 59 58 58 58 57 57 57 57 57 57 57 57 55 52 55 55 56 57 57 56 55 56 56 51 47 46 46 46 46 46 47 47 48
47 58 60 60 60 60 60 59 59 59 58 58 57 57 57 57 57 57 57 57 57 56 55 53 53 55 55 56 56 56 56 56 56 52 47 45 46 46 45 45 45 46 46
42 43 46 57 59 59 59 59 59 58 58 58 57 57 57 57 57 57 57 57 57 56 55 54 53 53 54 55 55 54 54 57 55 48 44 45 44 44 44 44 44 45 44
39 41 40 41 41 44 39 40 55 58 57 57 56 57 58 56 51 54 57 57 56 55 54 54 53 53 53 53 53 55 54 54 51 46 44 43 43 43 42 42 43 42 42
35 36 37 38 37 37 36 37 41 56 57 56 56 57 57 51 51 47 47 48 54 56 54 54 53 52 53 53 54 54 53 52 47 46 42 38 39 38 39 40 40 40 40
33 33 32 34 34 34 35 37 38 49 56 56 57 57 57 56 52 55 45 41 40 40 42 56 54 54 53 54 54 53 54 53 51 44 39 33 35 34 38 38 38 38 38
32 32 32 31 32 31 34 35 36 38 37 36 37 39 45 53 54 54 47 44 41 39 41 43 50 52 50 51 54 53 52 40 37 36 38 32 33 32 34 36 36 35 35
32 32 31 31 30 31 32 33 35 35 34 33 33 34 35 38 36 40 46 40 34 33 35 35 35 35 35 35 40 47 41 41 35 34 35 32 32 31 32 32 34 33 33
32 32 32 32 31 30 32 32 31 33 33 33 32 32 33 34 34 35 42 40 36 32 32 32 32 31 31 31 31 33 43 44 34 33 33 30 30 30 28 30 30 31 31
Lifted_Index
-4 -4 -4 -4 -3 -3 -2 -2 -1 -1 -1 -0 0 0 0 -1 -1 -1 -1 -1 -0 -1 -1 -1 -1 -1 -0 0 1 1 2 2 3 3 4 4 4 4 5 4 4 4 4
-3 -3 -3 -3 -3 -3 -2 -2 -1 -1 -1 -0 1 1 1 -0 -0 -1 -1 -1 -0 -0 -1 -1 -1 -1 0 1 1 1 2 2 3 3 4 4 4 5 5 5 4 4 4
-3 -3 -3 -3 -3 -3 -2 -2 -1 -1 -1 -0 1 1 1 0 0 -0 -1 -1 -1 -0 -0 -0 -1 -0 0 1 2 2 2 2 3 3 4 4 5 5 5 5 5 5 5
-3 -3 -3 -3 -3 -3 -2 -2 -1 -1 -1 -0 0 0 1 0 0 0 0 -0 -0 -0 -0 0 0 -0 0 1 2 2 2 3 3 3 4 4 5 5 5 5 5 5 5
-3 -3 -3 -3 -3 -3 -2 -2 -2 -1 -1 -1 -0 -0 -0 0 0 0 0 0 -0 -0 -0 0 0 0 1 1 1 2 2 3 3 3 4 4 5 5 5 5 5 5 5
-3 -3 -3 -2 -2 -3 -2 -2 -2 -1 -1 -1 -1 -0 -0 -0 -0 -0 0 0 0 0 0 0 0 1 1 1 1 2 2 3 3 3 3 4 4 5 5 5 5 5 5
-3 -3 -3 -2 -2 -3 -3 -2 -2 -1 -1 -1 -0 -0 -0 -0 -0 -0 0 0 0 0 0 0 1 1 1 1 1 2 2 2 2 3 3 3 4 5 5 5 5 5 6
-4 -3 -3 -3 -2 -3 -3 -2 -2 -2 -1 -0 -0 -0 0 0 -0 -0 0 0 0 0 0 1 1 1 1 1 1 2 2 2 2 2 2 3 4 4 5 5 5 5 6
-4 -4 -3 -3 -3 -3 -3 -3 -2 -2 -1 -0 0 0 0 0 0 0 0 0 0 0 1 1 1 1 1 1 2 2 2 2 2 2 2 2 3 4 5 5 5 5 5
-5 -4 -4 -3 -3 -3 -3 -3 -2 -2 -1 -0 0 0 0 0 0 0 0 0 1 1 1 1 1 2 1 1 2 2 2 2 2 2 2 2 3 4 5 5 5 5 5
-5 -5 -4 -4 -4 -3 -3 -3 -2 -2 -1 -1 -0 0 0 1 0 0 0 1 1 1 1 2 2 2 2 1 2 2 2 2 2 2 2 2 3 3 4 5 5 5 5
-5 -5 -5 -4 -4 -3 -3 -3 -3 -2 -2 -1 -1 -0 0 0 0 0 0 1 1 1 1 2 2 2 2 2 2 2 3 3 3 3 3 2 2 3 4 4 4 4 4
-5 -5 -4 -4 -4 -3 -3 -3 -3 -2 -2 -1 -1 -1 -0 -0 0 0 1 1 1 2 2 2 2 2 2 2 2 3 3 3 3 3 3 3 3 3 3 4 4 4 4
-4 -4 -4 -4 -3 -3 -2 -2 -2 -2 -2 -1 -1 -1 -1 -0 0 0 1 1 2 2 2 2 2 2 2 2 3 3 3 3 3 3 3 4 4 4 4 4 4 4 4
-4 -4 -3 -3 -3 -2 -2 -2 -2 -2 -2 -1 -1 -1 -1 -0 0 0 1 1 2 2 2 2 2 2 2 2 3 3 3 3 4 4 4 4 4 5 5 4 4 4 4
-3 -3 -3 -3 -2 -1 -1 -1 -2 -2 -2 -2 -1 -1 -1 -0 0 0 1 1 2 2 2 2 2 2 2 3 3 4 4 4 4 4 4 4 5 5 5 5 5 4 4
-2 -2 -3 -2 -1 -1 -1 -1 -2 -2 -2 -2 -1 -1 -1 -0 0 1 1 1 2 2 2 2 2 2 3 3 4 4 4 4 4 4 4 4 4 4 4 4 4 4 4
-1 -1 -2 -2 -2 -1 -1 -1 -1 -1 -2 -2 -2 -2 -1 -0 1 1 1 1 2 2 2 2 2 2 3 3 4 4 4 5 5 4 4 4 4 4 4 4 4 4 4
-1 -1 -1 -1 -1 -1 -1 -1 -1 -1 -1 -1 -2 -1 -1 0 1 1 1 1 2 2 2 2 2 2 3 3 4 4 4 4 4 4 4 4 4 4 4 3 4 4 4
-0 -0 -1 -1 -1 -1 -1 -1 -1 -0 -0 -1 -1 -1 -0 1 1 1 1 1 1 2 2 2 2 2 2 3 3 4 4 4 4 4 3 3 3 3 3 3 3 3 4
1 1 0 0 0 0 -0 -0 0 0 -0 -1 -1 -1 0 1 1 1 1 1 1 1 1 2 2 2 2 3 3 3 4 4 3 3 3 3 3 3 3 3 3 3 4
3 2 1 1 1 1 1 1 0 0 -0 -0 -1 -0 1 1 1 1 1 1 1 1 1 2 2 2 2 2 3 3 3 3 3 3 3 2 2 2 3 3 3 3 4
6 5 4 4 3 3 2 1 1 1 0 0 -0 0 1 1 1 1 1 1 1 1 1 1 2 2 2 2 2 2 3 3 3 3 3 2 2 3 4 5 5 4 4
9 8 8 7 7 6 5 3 2 2 1 1 1 1 2 2 1 1 1 1 1 1 1 1 2 2 2 2 2 2 2 2 3 3 3 3 3 4 5 7 7 7 7
11 11 10 10 9 9 8 6 5 4 3 3 2 2 2 1 1 1 1 1 1 1 1 1 2 2 2 2 3 3 3 3 3 3 3 3 3 4 6 8 10 10 11
12 12 11 11 11 11 10 9 7 5 4 4 4 2 2 1 1 1 1 1 1 1 1 1 2 2 2 2 3 3 3 2 2 3 3 3 4 4 5 8 11 12 13